Regional Weather Roundup
Issued by NWS

Home | Current Version | Previous Version | Text Only | Print | Product List | Glossary On
Versions: 1 2 3 4 5 6 7 8 9 10 11 12 13 14 15 16 17 18 19 20 21 22 23 24 25 26 27 28 29 30 31 32 33 34 35 36 37 38 39 40 41 42 43 44 45 46 47 48 49 50
859
ASCA44 KEWX 191720
RWRMX

LATIN AMERICA AND CARIBBEAN REGIONAL WEATHER ROUNDUP
NATIONAL WEATHER SERVICE AUSTIN/SAN ANTONIO TX
1200 PM CDT THU OCT 19 2017

NOTE: "FAIR" INDICATED FEW OR NO CLOUDS BELOW 12,000 FEET WITH NO
SIGNIFICANT WEATHER AND/OR OBSTRUCTIONS TO VISIBILITY.

BAJA CALIFORNIA

CITY           SKY/WX    TMP DP  RH WIND       PRES   REMARKS
LA PAZ         SUNNY     88  52  29 S10       29.87S
MEXICALI       MOSUNNY   82  39  21 E6        29.81S
S.J. DEL CABO  SUNNY     93  57  29 CALM      29.87  HX  92
TIJUANA        PTSUNNY   70  57  64 CALM      29.96S

NORTHWESTERN MEXICO

CITY           SKY/WX    TMP DP  RH WIND       PRES   REMARKS
CULIACAN       SUNNY     90  73  58 CALM      29.84F HX  98
DURANGO        SUNNY     68  46  45 N2        30.29F
GUAYMAS        MOSUNNY   88  52  29 CALM      29.79S
HERMOSILLO     PTSUNNY   86  43  22 E5        29.88R
CD. JUAREZ     PTSUNNY   73  52  46 E9        30.11F
LOS MOCHIS     SUNNY     88  63  42 E6        29.85S
OBREGON        MOSUNNY   90  50  25 S2        29.82S

NORTHEASTERN MEXICO

CITY           SKY/WX    TMP DP  RH WIND       PRES   REMARKS
CHIHUAHUA      MOSUNNY   75  48  38 CALM      30.16F
MATAMOROS      MOSUNNY   81  70  69 CALM      30.07S
MONCLOVA       MOSUNNY   75  54  46 CALM      30.12
MONTERREY      PTSUNNY   75  59  57 S5        30.08F
NUEVO LAREDO   MOSUNNY   77  66  69 CALM      30.09F
PIEDRAS NEGRAS   N/A    N/A N/A N/A MISG        N/A
REYNOSA        MOSUNNY   79  63  57 NE8       30.06F
SALTILLO       MOSUNNY   70  54  56 NE7       30.25S
TORREON        PTSUNNY   79  46  31 CALM      30.15F
CD. VICTORIA   SUNNY     79  57  47 MISG      30.06F

WESTERN MEXICO

CITY           SKY/WX    TMP DP  RH WIND       PRES   REMARKS
AGUASCALIENTES SUNNY     73  43  33 SW6       30.33S
COLIMA         MOSUNNY   84  72  65 CALM      30.02F
DEL BAJIO      MOSUNNY   73  46  38 S7        30.34
GUADALAJARA    SUNNY     73  54  49 CALM      30.22F
MANZANILLO     MOSUNNY   88  79  74 SE12      29.87S HX 102
MAZATLAN       SUNNY     88  79  74 CALM      29.87R HX 102
P. VALLARTA    SUNNY     88  73  62 CALM      29.86  HX  96
URUAPAN        PTSUNNY   73  61  64 S12       30.22S
ZACATECAS      SUNNY     72  43  35 S3        30.33S

CENTRAL MEXICO

CITY           SKY/WX    TMP DP  RH WIND       PRES   REMARKS
CUERNAVACA     MOSUNNY   75  61  60 SW6       30.17F
MEXICO CITY    SUNNY     68  50  52 E7        30.37F
MORELIA        MOSUNNY   72  55  56 CALM      30.28F
POZA RICA      MOSUNNY   82  70  65 N7        30.10S
PUEBLA         SUNNY     70  46  43 CALM      30.36
QUERETARO      MOSUNNY   68  50  52 NE6       30.36F
S. LUIS POTOSI SUNNY     68  28  22 SE6       30.31S
TAMPICO        MOSUNNY   81  68  65 SW9       30.05S
TOLUCA         MOSUNNY   64  50  59 SW3       30.42F FOG

SOUTHERN MEXICO

CITY           SKY/WX    TMP DP  RH WIND       PRES   REMARKS
ACAPULCO       SUNNY     88  79  74 W6        29.85F HX 102
B. DE HUATULCO MOSUNNY  N/A N/A N/A CALM      29.91F
OAXACA         MOSUNNY   75  54  46 W5        30.25F
P. ESCONDIDO   SUNNY     88  79  74 MISG      29.96S HX 102
VERACRUZ       SUNNY     86  68  54 N12       30.03S
ZIHUATANEJO    PTSUNNY   91  77  62 SW6       29.87F HX 105

YUCATAN PENINSULA

CITY           SKY/WX    TMP DP  RH WIND       PRES   REMARKS
CAMPECHE       MOSUNNY   84  79  84 E7        29.94F HX  96
CANCUN         PTSUNNY   84  77  79 E7        30.00F HX  94
CHETUMAL       PTSUNNY   84  77  79 CALM      29.97F HX  94
CD. DEL CARMEN PTSUNNY  N/A N/A N/A SE12      29.97F
COZUMEL        PTSUNNY   81  77  89 CALM      29.98S
MERIDA         PTSUNNY   88  75  66 E8        29.98F HX  97
MINATITLAN     CLOUDY    75  73  94 N6        30.00S
TAPACHULA      PTSUNNY   90  77  66 CALM      29.86F HX 102
TUX. GUTIERREZ PTSUNNY   81  70  69 N5        30.02F
VILLAHERMOSA   CLOUDY    77  77 100 SW6       30.00F FOG

CENTRAL AMERICA

CITY           SKY/WX    TMP DP  RH WIND       PRES   REMARKS
BELIZE CITY    MOSUNNY   82  79  89 E2        29.97F HX  93
MANAGUA        MOSUNNY   86  77  74 E9        29.83S HX  97

CARIBBEAN

CITY           SKY/WX    TMP DP  RH WIND       PRES   REMARKS
ARUBA          MOSUNNY   90  79  70 E17       29.77F HX 105
CURACAO        MOSUNNY   84  75  74 E12       29.86F HX  92
KINGSTON       MOSUNNY   91  77  62 SE21      29.89F HX 105
NASSAU         PTSUNNY   88  75  66 E8        30.01F HX  97
SAN JUAN       MOSUNNY   90  75  62 E20G26    29.99F HX 100
SANTO DOMINGO  MOSUNNY   90  77  66 E12       29.97S DUST    HX 102
ST. CROIX      MOSUNNY   88  75  66 SE12G18   29.99F HAZE    HX  97
ST. KITTS      MOSUNNY   86  75  70 E17       29.97F HX  95
ST. MAARTEN    MOSUNNY   86  75  70 SE17      30.00S HX  95
ST. THOMAS     MOSUNNY   88  72  58 SE18G31   29.98F DUST    HX  94

$$





USA.gov is the U.S. government's official web portal to all federal, state and local government web resources and services.